Showing default

ORBCOMM FM 119, 41180

Orbit data source: Space-Track

ORBCOMM FM 119, 41180 is a payload satellite owned by Orbcomm (US) in LEO that was launched on Tue, 22 Dec 2015 UTC via an FALCON 9 launch vehicle from the Air Force Eastern Test Range (AFETR). Payloads include a variety of satellites, spacecraft, and rockets equipped with specific instruments for various scientific and technological missions. These include communications satellites like Starlink; space stations such as the ISS; scientific satellites like the Hubble; Earth observation satellites from companies like Planet Labs, Umbra, and HawkEye 360; GPS; miniature CubeSats for education and research; and military/defense satellites.

Loading next visibility...
ORBCOMM FM 119 details
Identifier
41180, 2015-081B
Orbit
LEO
Last TLE update17 hours ago
Origin
Flag of USOrbcomm (US / ORB)
ManufacturerSNC Louisville
MissionNon-operational Commercial Communications
Bus & MotorSN-100A, Unknown motor
Mass172 kg wet, 158 kg dry
Launch date (UTC)
2015-12-22 (9 years ago)
Launch vehicle
FALCON 9
Launch site
Air Force Eastern Test Range (AFETR)
Object type
Payload
Rocket body
Debris
Shape & HBRBox + 1 Pan + 1 Ant, 13 m
Radar Cross Section2.222 m², Medium (>0.1 m² and < 1m²)

Expand to show TLE details & history

TLE from 17 hours ago
0 ORBCOMM FM 119
1 41180U 15081B   24336.61312619  .00002564  00000-0  59569-3 0  9990
2 41180  47.0010  48.8565 0002188 251.3032 108.7616 14.57482473476897
Epoch: 2024-12-01T14:42Z
Definitive object data (Epoch: 2024-12-01T14:42:54.102Z)
Latitude-0.00002°
Longitude117.18223°
Altitude702.028 km
Speed7.506 km/s
True Right ascension03h 15m 25s
True Declination0° 00' 00"
Sunlit
Object was in full shadow at TLE epoch
Visualization TLE readout
Latitude19.99229°
Longitude133.64226°
Altitude702.161 km
Speed7.507 km/s
Apparent Right ascension02h 36m 53s
Apparent Declination-39° 03' 58"
Sunlit
Object is in full shadow
Visualization observer readout
Local Sidereal Time05:03:41
Azimuth207.725° SW
Elevation4.191°
Doppler factor1
Orbital elements
Apogee altitude704.098 km
Perigee altitude700.999 km
Semi-major axis7,080.686 km
Eccentricity0.0002188
Inclination47.001°
RAAN48.8565°
Arg. of periapsis251.3032°
True anomaly108.78534°
Mean anomaly108.7616°
Eccentric anomaly108.77347°
Mean motion3.64276 °/min
BSTAR0.00059569
Orbital period98.83 mins
Loading maneuver chart data...
Loading historical data...
Loading historical data...
Loading historical data...
Loading historical data...
Loading historical data...
Loading historical data...
Loading historical data...

ORBCOMM FM 119 Visibility forecast

Observer location: undefined°, undefined

Span
Click to sort rows by Start time (UTC) header in descending order
Start Az.
Max El. time (UTC)
Max El. Az.
Max El.
End time (UTC)
End Az.
8 mins2024-12-02 07:19:38.529Z198.046° SSW2024-12-02 07:23:38.529Z135.287° SSE28.05°2024-12-02 07:27:38.529Z78.282° E
8 mins2024-12-02 09:03:38.529Z256.843° W2024-12-02 09:06:38.529Z319.52° NNW42.689°2024-12-02 09:11:38.529Z59.337° ENE
7 mins2024-12-02 10:47:38.529Z296.104° NW2024-12-02 10:50:38.529Z346.677° N30.784°2024-12-02 10:54:38.529Z58.033° ENE
8 mins2024-12-02 12:31:38.529Z306.873° NW2024-12-02 12:35:38.529Z31.013° NE35.951°2024-12-02 12:39:38.529Z89.033° E
8 mins2024-12-02 14:15:38.529Z288.397° WNW2024-12-02 14:18:38.529Z233.689° WSW40.423°2024-12-02 14:23:38.529Z135.905° SSE
4 mins2024-12-03 06:22:38.529Z154.617° SSE2024-12-03 06:23:38.529Z139.929° SSE17.316°2024-12-03 06:26:38.529Z98.351° ESE
|